Weather History for London-Corbin, KY

Change the Weather History Date:

Wednesday, July 17, 2013

  Actual Average Record
Temperature  
Mean Temperature 81 °F 76 °F  
Max Temperature 91 °F 87 °F 95 °F (1977)
Min Temperature 70 °F 66 °F 53 °F (1970)
Degree Days  
Heating Degree Days 0 0  
Month to date heating degree days 0 0  
Since 1 June heating degree days 0 9  
Since 1 July heating degree days 0 0  
Cooling Degree Days 16 11  
Month to date cooling degree days 166 187  
Year to date cooling degree days 497 544  
Since 1 June cooling degree days 397 430  
Growing Degree Days 30 (Base 50)    
Moisture  
Dew Point 70 °F    
Average Humidity 77    
Maximum Humidity 100    
Minimum Humidity 53    
Precipitation  
Precipitation T in 0.13 in 1.50 in (1959)
Month to date precipitation 6.08 2.24  
Year to date precipitation 36.33 27.17  
Sea Level Pressure  
Sea Level Pressure 30.27 in    
Wind  
Wind Speed 2 mph (ENE)    
Max Wind Speed 9 mph    
Max Gust Speed 14 mph    
Visibility 10 miles    
Events Rain , Thunderstorm    
T = Trace of Precipitation, MM = Missing Value Source: NWS Daily Summary

Daily Weather History Graph

Daily Weather History Graph

Search for Another Location

Airport:

Trip Planner

Search our weather history database for the weather conditions in past years. The results will help you decide how hot, cold, wet, or windy it might be!

Date:

Astronomy

Jul. 17, 2013 Rise Set
Actual Time 6:29 AM EDT 8:54 PM EDT
Civil Twilight 5:59 AM EDT 9:24 PM EDT
Nautical Twilight 5:23 AM EDT 10:01 PM EDT
Astronomical Twilight 4:42 AM EDT 10:41 PM EDT
Moon 3:44 PM EDT (7/17) 1:33 AM EDT (7/17)
Length of Visible Light 15h 24m
Length of Day
14h 24m
Waxing Gibbous, 67% of the Moon is Illuminated
Jul 17
Waxing Gibbous
Jul 22
Full
Jul 29
Last Quarter
Aug 6
New
Aug 14
First Quarter

Hourly Weather History & Observations

Time (EDT) Temp. Heat Index Dew Point Humidity Pressure Visibility Wind Dir Wind Speed Gust Speed Precip Events Conditions
12:53 AM 73.0 °F - 71.1 °F 93% 30.29 in 10.0 mi Calm Calm - N/A   Clear
1:53 AM 73.0 °F - 71.1 °F 93% 30.28 in 10.0 mi Calm Calm - N/A   Clear
2:53 AM 73.0 °F - 70.0 °F 90% 30.27 in 10.0 mi Calm Calm - N/A   Clear
3:53 AM 72.0 °F - 69.1 °F 91% 30.27 in 10.0 mi Calm Calm - N/A   Clear
4:53 AM 71.1 °F - 69.1 °F 93% 30.28 in 10.0 mi Calm Calm - N/A   Clear
5:53 AM 70.0 °F - 68.0 °F 93% 30.29 in 10.0 mi Calm Calm - N/A   Clear
6:53 AM 70.0 °F - 69.1 °F 97% 30.30 in 10.0 mi Calm Calm - N/A   Clear
7:53 AM 73.9 °F - 71.1 °F 91% 30.30 in 10.0 mi Calm Calm - N/A   Clear
8:53 AM 77.0 °F - 73.0 °F 88% 30.31 in 10.0 mi Calm Calm - N/A   Clear
9:53 AM 80.1 °F 84.2 °F 73.0 °F 79% 30.32 in 10.0 mi Calm Calm - N/A   Clear
10:53 AM 84.9 °F 90.1 °F 71.1 °F 63% 30.30 in 10.0 mi ENE 5.8 mph - N/A   Clear
11:53 AM 87.1 °F 92.0 °F 70.0 °F 57% 30.30 in 10.0 mi NE 4.6 mph - N/A   Clear
12:53 PM 88.0 °F 92.9 °F 70.0 °F 55% 30.29 in 10.0 mi NNE 9.2 mph - N/A   Scattered Clouds
1:53 PM 88.0 °F 91.4 °F 68.0 °F 51% 30.27 in 10.0 mi Variable 4.6 mph - N/A   Partly Cloudy
2:32 PM 89.6 °F 94.7 °F 69.8 °F 52% 30.29 in 10.0 mi Variable 6.9 mph - N/A   Partly Cloudy
2:53 PM 88.0 °F 91.4 °F 68.0 °F 51% 30.24 in 10.0 mi East 4.6 mph - N/A   Clear
3:53 PM 88.0 °F 92.1 °F 69.1 °F 53% 30.23 in 10.0 mi NNE 4.6 mph - N/A Thunderstorm Partly Cloudy
4:05 PM 86.0 °F 90.4 °F 69.8 °F 58% 30.27 in 10.0 mi NE 9.2 mph - N/A Thunderstorm Partly Cloudy
4:37 PM 80.6 °F 85.4 °F 73.4 °F 79% 30.26 in 8.0 mi East 5.8 mph - 0.00 in Rain Light Rain
4:53 PM 79.0 °F - 73.0 °F 82% 30.23 in 9.0 mi ESE 5.8 mph - 0.00 in   Mostly Cloudy
5:53 PM 78.1 °F - 73.0 °F 84% 30.22 in 8.0 mi Calm Calm - N/A   Clear
6:53 PM 77.0 °F - 72.0 °F 84% 30.22 in 7.0 mi ESE 3.5 mph - 0.00 in   Clear
7:53 PM 75.9 °F - 71.1 °F 85% 30.21 in 8.0 mi Calm Calm - N/A   Clear
8:53 PM 75.0 °F - 70.0 °F 84% 30.25 in 8.0 mi Calm Calm - N/A   Partly Cloudy
9:53 PM 73.9 °F - 70.0 °F 87% 30.24 in 10.0 mi Calm Calm - 0.00 in   Clear
10:53 PM 73.0 °F - 70.0 °F 90% 30.25 in 9.0 mi Calm Calm - N/A   Clear
11:53 PM 73.0 °F - 70.0 °F 90% 30.24 in 9.0 mi Calm Calm - N/A   Clear